User: anonymous   Login
Location: Sternwarte Stuttgart
(48.7670°N, 9.1830°E)
Time: 07:03:40
(UTC+02:00)
Language:

Aureole 1 Rocket - Orbit

View from above orbital plane
View from above orbital plane
View from above satellite
View from above satellite

Ground track
Ground track

The orbit data is extracted from the following two-line orbital elements,

1  5730U 71119B   19294.89235163  .00001975  00000-0  12912-3 0  9996
2  5730  73.8942  60.9857 0690911 133.6605 232.3991 14.03669032325828
Epoch (UTC): 21 October 2019 21:24:59
Eccentricity: 0.0690911
inclination: 73.8942°
perigee height: 379 km
apogee height: 1382 km
right ascension of ascending node: 60.9857°
argument of perigee: 133.6605°
revolutions per day: 14.03669032
mean anomaly at epoch: 232.3991°
orbit number at epoch: 32582

The dashed part of the orbit path shows where the satellite is in the earth's shadow,  

DLR